TimeCDT,TemperatureF,Dew PointF,Humidity,Sea Level PressureIn,VisibilityMPH,Wind Direction,Wind SpeedMPH,Gust SpeedMPH,PrecipitationIn,Events,Conditions,WindDirDegrees,DateUTC
12:53 AM,70.0,57.9,65,29.91,10.0,NNW,6.9,-,N/A,,Clear,330,2012-09-06 05:53:00
1:53 AM,68.0,57.0,68,29.92,1.8,NNW,5.8,-,N/A,,Haze,330,2012-09-06 06:53:00
2:00 AM,68.0,57.2,68,29.96,4.0,Calm,Calm,-,N/A,,Haze,0,2012-09-06 07:00:00
2:26 AM,68.0,57.2,68,29.97,1.8,NW,4.6,-,N/A,,Haze,310,2012-09-06 07:26:00
2:44 AM,66.2,57.2,73,29.97,3.0,NW,8.1,-,N/A,,Haze,310,2012-09-06 07:44:00
2:53 AM,66.9,57.0,70,29.93,10.0,NNW,6.9,-,N/A,,Clear,330,2012-09-06 07:53:00
3:53 AM,64.9,57.0,75,29.95,10.0,West,4.6,-,N/A,,Clear,270,2012-09-06 08:53:00
4:53 AM,64.9,57.0,75,29.94,10.0,Calm,Calm,-,N/A,,Clear,0,2012-09-06 09:53:00
5:53 AM,63.0,57.0,81,29.96,10.0,NNW,6.9,-,N/A,,Clear,330,2012-09-06 10:53:00
6:53 AM,61.0,55.0,81,29.97,10.0,West,4.6,-,N/A,,Clear,280,2012-09-06 11:53:00
7:53 AM,64.0,55.0,73,29.98,10.0,North,5.8,-,N/A,,Clear,350,2012-09-06 12:53:00
8:53 AM,69.1,55.0,61,29.97,10.0,NNE,3.5,-,N/A,,Clear,30,2012-09-06 13:53:00
9:53 AM,72.0,55.0,55,29.96,10.0,ESE,4.6,-,N/A,,Clear,120,2012-09-06 14:53:00
10:53 AM,78.1,57.0,48,29.95,10.0,ESE,6.9,-,N/A,,Clear,120,2012-09-06 15:53:00
11:53 AM,84.0,61.0,46,29.92,10.0,SE,12.7,-,N/A,,Clear,130,2012-09-06 16:53:00
12:53 PM,89.1,64.0,43,29.89,10.0,SE,10.4,-,N/A,,Clear,140,2012-09-06 17:53:00
1:53 PM,91.0,63.0,39,29.87,10.0,SE,8.1,-,N/A,,Clear,140,2012-09-06 18:53:00
2:53 PM,93.0,64.0,38,29.84,10.0,SSE,9.2,-,N/A,,Clear,150,2012-09-06 19:53:00
3:53 PM,93.9,63.0,36,29.81,10.0,SE,11.5,-,N/A,,Clear,140,2012-09-06 20:53:00
4:53 PM,95.0,60.1,31,29.79,10.0,SSW,15.0,21.9,N/A,,Clear,210,2012-09-06 21:53:00
5:53 PM,93.9,60.1,32,29.77,10.0,South,10.4,-,N/A,,Clear,190,2012-09-06 22:53:00
6:53 PM,90.0,61.0,38,29.76,10.0,South,6.9,-,N/A,,Clear,180,2012-09-06 23:53:00
7:53 PM,84.9,63.0,48,29.76,10.0,South,6.9,-,N/A,,Clear,170,2012-09-07 00:53:00
8:53 PM,82.0,63.0,52,29.78,10.0,SSE,5.8,-,N/A,,Clear,150,2012-09-07 01:53:00
9:53 PM,84.0,62.1,47,29.81,10.0,SSE,3.5,-,N/A,,Clear,160,2012-09-07 02:53:00
10:53 PM,82.9,61.0,47,29.80,10.0,South,3.5,-,N/A,,Clear,170,2012-09-07 03:53:00
11:53 PM,82.0,61.0,49,29.78,10.0,WSW,9.2,-,N/A,,Clear,250,2012-09-07 04:53:00